Theta_e
348 347 345 345 348 344 344 340 345 345 346 341 341 339 342 342 340 335 331 330 331 331 331 332 332 336 335 336 336 335 334 332 331 332 332 330 330 331 332 332 331 329 325
346 341 346 345 347 348 343 343 346 345 345 341 342 342 343 345 345 343 338 335 333 332 332 330 330 329 329 328 328 328 327 327 326 326 326 326 328 330 330 329 329 329 328
342 343 345 345 349 350 347 348 348 347 346 342 345 344 345 344 344 345 346 343 339 334 334 334 333 332 330 327 325 324 325 325 326 327 328 329 329 330 330 329 328 327 328
348 347 344 347 345 347 346 346 347 345 345 345 345 344 345 342 343 344 347 348 347 344 335 338 335 332 330 329 328 329 331 334 336 338 339 340 340 339 338 336 333 331 328
352 348 348 347 349 346 348 346 346 346 345 344 346 346 345 342 344 344 346 344 345 347 345 343 346 341 331 330 333 337 339 340 340 340 340 340 341 341 341 342 342 340 335
352 349 352 349 348 347 346 349 345 343 344 342 344 344 345 344 345 345 343 344 342 342 346 345 346 345 340 340 337 340 340 341 341 341 341 341 343 346 346 346 346 345 345
352 349 350 343 345 346 348 350 347 349 349 345 347 346 343 339 342 344 344 344 344 346 345 345 347 345 348 348 345 345 347 345 343 344 346 349 348 347 347 346 349 350 348
352 350 351 347 348 348 352 350 346 345 345 345 348 344 341 342 341 342 345 344 343 345 345 345 344 343 344 348 348 347 348 345 346 345 348 349 350 347 346 351 354 354 353
350 351 351 350 347 349 347 350 351 345 349 346 344 346 346 345 350 340 340 342 339 343 343 343 343 344 344 347 348 349 347 345 349 346 348 349 346 346 347 351 355 357 356
352 352 353 351 350 346 348 345 351 351 343 347 350 344 345 344 346 344 342 339 342 342 341 342 343 344 345 347 348 348 346 351 351 347 346 345 345 345 349 352 357 357 357
350 352 352 352 348 348 344 347 352 347 349 352 350 350 349 347 351 347 345 339 339 341 341 342 344 344 346 349 348 348 351 351 352 350 349 346 343 344 352 355 357 355 354
353 351 353 353 351 348 348 352 352 350 348 348 350 349 349 350 347 350 347 348 342 341 342 344 344 346 347 349 350 351 352 353 352 353 349 349 344 346 353 356 355 352 349
352 354 353 354 352 349 346 352 352 350 353 344 344 346 342 348 352 351 347 350 347 348 347 345 345 345 347 349 352 352 352 353 352 354 353 351 346 347 352 355 354 350 343
347 351 351 351 353 349 351 353 352 349 350 349 345 343 339 341 345 348 352 344 345 350 348 351 345 346 349 350 351 350 350 352 352 349 354 354 348 347 352 354 355 350 342
350 351 350 350 353 354 352 353 352 353 351 349 348 344 342 338 339 345 351 346 348 345 345 349 350 352 352 352 350 346 350 351 350 353 353 350 348 346 348 354 354 353 347
350 346 350 351 352 353 353 351 352 351 352 352 352 349 350 350 349 344 347 353 353 350 345 347 350 354 351 348 345 346 349 350 352 352 352 350 349 346 347 352 355 354 352
351 350 349 351 352 352 353 353 352 351 353 353 349 353 350 352 350 349 344 347 348 351 351 350 349 347 345 343 348 349 349 351 351 351 352 353 350 347 348 349 354 355 353
352 353 352 341 351 353 354 354 351 352 350 352 350 352 347 349 350 353 351 349 353 352 355 352 350 348 353 353 350 346 346 350 351 349 346 346 346 347 347 349 350 356 353
354 354 352 353 353 353 352 355 354 351 353 353 352 351 353 349 349 352 349 348 351 349 350 354 351 349 351 350 347 351 353 353 346 349 346 342 347 346 347 347 348 354 353
355 354 353 353 353 354 354 355 354 353 351 352 355 354 355 353 353 352 352 350 348 350 349 350 350 350 350 350 351 349 351 351 349 348 345 344 349 348 347 345 346 348 355
357 355 354 354 355 356 354 352 354 356 355 354 351 353 354 354 357 353 355 354 352 351 352 354 356 357 357 355 351 354 352 348 344 339 341 344 347 347 346 348 350 348 354
354 357 356 356 355 354 358 357 355 354 353 356 356 354 353 352 355 358 354 351 354 352 351 354 353 355 355 355 353 350 349 349 352 342 348 347 347 349 351 350 351 349 351
354 355 355 355 355 356 355 353 354 353 353 352 353 356 353 354 353 356 354 352 352 353 352 350 348 346 345 343 342 342 343 345 350 346 354 355 346 349 343 347 352 350 350
350 352 352 353 354 355 355 356 355 352 353 353 353 354 357 356 355 355 353 354 357 356 356 356 355 353 351 353 351 348 348 348 349 350 354 355 347 344 341 344 347 346 346
341 344 349 351 352 353 354 354 354 354 355 354 353 353 351 350 352 353 357 359 359 357 354 354 356 359 359 357 353 353 351 352 352 350 350 350 348 347 345 347 347 346 345
335 338 339 343 345 349 352 352 353 354 354 355 356 356 355 354 353 351 349 351 352 352 354 356 356 354 353 356 356 355 354 351 350 351 349 350 348 346 349 345 348 349 346
Wind_Speed
15 11 11 9 4 5 6 9 4 8 10 13 10 14 16 9 7 10 11 8 6 5 4 3 2 1 0 1 2 3 3 4 5 6 6 6 6 6 6 4 4 3 1
13 15 8 8 4 8 6 5 7 6 7 9 10 10 9 10 4 6 10 9 8 5 4 3 2 2 1 1 2 3 4 5 6 7 7 8 8 7 6 6 4 4 4
10 11 10 13 7 8 5 6 3 3 7 9 9 11 7 10 7 4 6 6 8 6 6 5 4 4 4 3 3 3 4 5 6 8 9 9 9 9 8 8 7 6 6
9 8 10 10 6 6 8 9 2 2 4 6 9 9 10 6 11 5 5 5 5 3 6 6 6 5 4 4 4 4 5 6 8 9 10 12 12 13 12 11 10 10 9
6 5 9 8 3 6 6 5 3 8 7 6 10 10 12 8 9 10 10 5 6 5 2 2 3 4 5 5 4 5 6 8 9 12 14 15 16 16 16 15 14 14 13
6 5 6 8 4 9 5 3 2 3 3 7 2 5 7 14 12 14 11 10 7 7 3 4 2 0 3 4 4 6 8 10 12 14 15 16 16 16 16 15 15 14 15
7 7 6 8 6 9 3 0 0 4 5 3 4 4 3 6 10 16 13 8 11 9 7 3 1 1 2 4 4 6 9 13 15 16 16 15 14 17 17 15 13 12 10
9 9 8 6 3 8 2 3 2 6 4 3 3 3 3 2 7 9 16 13 10 11 11 6 3 2 3 5 7 7 9 13 15 16 15 13 17 17 16 14 15 13 10
11 9 8 7 6 6 5 2 2 4 6 4 3 3 2 2 2 3 9 9 7 6 12 7 6 4 1 4 6 7 6 10 14 18 15 16 17 16 14 15 14 13 10
8 8 6 7 9 9 6 3 2 5 5 9 6 5 2 2 2 3 6 8 7 8 11 8 10 9 1 2 7 3 10 10 13 17 16 17 17 16 16 14 13 13 11
10 9 10 8 7 4 8 5 1 3 5 6 12 12 6 4 2 2 2 3 10 11 9 8 11 14 5 4 3 3 11 13 12 14 15 19 17 18 17 14 13 12 10
10 10 11 11 7 8 8 5 2 1 2 3 6 7 10 6 11 4 1 3 7 15 10 4 4 4 7 6 7 5 11 13 14 15 16 17 17 19 16 13 12 11 10
13 11 10 10 11 11 13 8 6 6 4 6 7 7 7 8 10 15 4 5 5 2 6 12 7 5 4 1 0 6 12 14 17 16 18 16 16 16 15 12 10 10 8
14 12 13 11 11 9 7 7 6 5 6 9 9 10 11 10 12 14 12 4 3 6 12 2 9 8 4 2 7 13 17 18 21 17 19 16 13 12 14 11 10 10 7
11 10 15 12 13 12 10 9 10 8 7 7 9 10 12 13 11 12 18 9 2 1 2 5 7 5 4 6 11 16 18 20 17 16 18 10 8 10 10 9 9 9 9
15 9 15 14 14 13 13 10 8 7 9 11 10 10 12 13 12 12 13 15 15 5 1 8 6 6 10 16 18 17 21 21 18 15 19 13 9 10 9 8 9 8 10
17 13 15 16 15 15 14 13 11 11 8 14 13 14 12 10 12 13 14 13 13 12 5 8 13 16 20 19 16 17 20 19 21 22 23 22 16 12 11 10 9 8 9
15 13 9 13 19 16 15 17 14 13 13 12 11 11 14 11 10 13 12 14 13 12 12 14 17 19 20 18 22 26 23 23 23 19 16 20 15 13 14 12 12 9 9
18 17 17 15 14 16 17 16 16 15 14 15 14 13 14 13 15 14 15 14 15 17 16 16 19 19 20 23 27 28 24 15 13 12 16 21 16 11 12 14 14 12 10
20 19 20 19 19 20 20 19 17 17 16 18 18 15 17 17 16 16 18 17 17 17 18 18 20 20 21 25 13 17 15 13 16 19 22 19 14 17 18 20 19 15 12
21 20 19 20 18 22 22 20 20 20 21 21 21 21 20 20 22 20 20 20 20 18 19 18 18 17 17 20 20 13 21 22 24 24 20 21 26 22 19 19 23 17 15
18 18 20 21 21 22 19 21 21 24 25 24 25 23 22 22 23 20 22 22 23 22 21 19 20 21 24 24 22 24 24 25 10 18 17 28 25 25 24 24 23 18 15
8 11 14 17 22 24 22 24 25 21 26 28 26 25 23 24 24 22 24 26 29 30 28 27 28 30 31 33 32 32 33 30 26 29 24 29 26 27 26 29 23 17 14
4 6 11 13 15 19 21 24 23 25 26 25 24 24 25 26 25 27 27 28 23 25 28 29 32 34 34 30 31 30 30 29 30 29 22 23 33 31 29 28 17 11 10
9 9 7 10 14 16 17 20 23 25 26 27 29 29 28 29 28 28 27 29 32 34 33 30 30 31 30 29 29 31 30 23 22 28 22 20 32 29 28 23 19 15 12
12 13 13 10 13 15 17 18 19 22 25 27 28 28 29 31 31 32 35 35 35 35 33 35 35 35 33 33 29 30 32 28 22 24 20 16 22 17 6 18 12 13 16
Wind_Direction
156 135 157 174 155 138 82 125 117 91 72 109 84 104 149 143 115 105 109 113 125 139 140 139 139 137 26 353 334 336 340 343 355 356 358 2 5 7 4 359 355 343 357
142 142 134 124 153 165 91 61 71 109 111 105 120 103 107 109 99 130 119 115 115 124 121 107 103 78 46 4 344 343 347 353 357 357 360 358 357 355 350 341 331 306 274
141 125 151 151 123 141 133 142 173 161 135 130 122 152 128 124 137 189 137 139 122 102 109 101 84 74 60 43 22 12 7 7 2 1 357 353 350 345 338 330 319 293 265
124 147 132 128 120 167 128 134 102 129 178 169 177 158 165 144 153 204 162 194 167 139 96 92 76 73 60 47 35 20 16 9 2 353 345 342 337 333 328 318 307 293 275
139 146 141 151 108 151 137 130 139 138 184 208 224 233 203 196 173 174 171 186 167 161 138 88 58 62 62 54 41 23 11 357 348 342 339 335 331 326 321 313 302 292 280
151 162 141 160 149 139 140 138 89 123 34 44 322 282 266 220 210 193 167 190 195 185 169 70 14 32 71 43 35 16 359 348 344 341 338 336 336 335 332 325 312 295 285
169 156 158 163 160 143 162 161 74 354 357 157 320 321 234 193 206 208 191 192 199 205 185 125 84 291 283 311 316 349 348 347 347 346 346 345 348 344 341 338 336 331 309
177 166 184 185 128 132 153 53 129 13 125 134 125 51 19 327 257 265 195 196 205 206 200 202 245 299 239 288 296 313 336 349 353 351 352 353 349 348 346 348 350 356 352
157 176 154 198 193 187 195 207 14 53 40 5 4 146 87 204 319 190 155 187 193 175 195 203 229 241 197 274 297 304 333 357 357 360 1 354 352 354 354 352 358 8 12
180 165 190 176 196 196 204 230 325 55 41 18 14 348 344 37 96 351 218 201 192 209 211 218 223 239 261 319 261 309 8 0 355 5 3 358 358 1 358 358 5 11 13
187 167 165 170 187 205 184 205 21 88 55 16 24 14 358 27 156 143 263 279 203 217 226 225 230 230 239 229 179 336 3 357 349 355 360 357 0 1 1 8 10 15 19
172 175 173 179 196 201 177 158 269 257 252 330 11 11 20 23 357 354 64 306 225 222 209 180 180 225 224 236 259 324 357 358 348 345 351 347 355 2 5 12 15 16 24
192 196 194 197 200 198 185 194 234 255 262 288 303 322 331 351 344 359 8 27 24 352 218 202 202 220 203 247 354 352 342 335 339 332 335 338 343 3 9 10 11 10 19
193 196 199 209 215 210 180 207 235 249 268 275 296 288 299 308 336 344 339 18 357 9 356 260 220 230 186 15 351 338 331 332 331 325 330 328 321 357 11 9 5 2 359
181 175 181 192 207 211 205 204 221 242 268 253 266 287 297 298 316 329 359 341 351 356 310 341 17 47 49 355 333 338 341 337 335 334 330 318 309 334 355 5 1 354 345
188 201 199 194 201 202 209 215 231 240 251 254 265 274 286 287 311 312 318 347 7 309 212 303 347 12 337 327 331 333 325 327 340 342 335 324 306 313 324 339 348 348 340
211 222 201 196 206 210 213 217 227 231 254 237 256 263 282 289 288 318 317 318 336 1 348 322 316 320 322 329 325 323 320 318 330 335 328 323 309 301 302 316 323 337 332
202 216 212 207 209 208 217 218 229 234 238 232 243 247 261 281 292 298 302 310 318 322 340 319 320 322 327 324 317 312 309 310 320 343 355 351 336 295 291 298 301 312 320
207 212 219 216 216 214 223 232 236 238 243 237 247 251 249 249 261 276 284 288 294 300 308 317 321 322 320 312 311 316 316 319 331 343 344 343 352 322 302 294 294 288 291
228 224 223 227 225 226 232 237 242 244 247 247 252 253 247 261 260 264 271 283 288 291 292 296 305 306 300 307 332 339 344 354 335 325 327 329 333 333 326 314 303 279 273
234 235 234 232 233 237 239 238 243 249 246 249 254 255 251 255 263 264 262 267 272 278 283 289 294 295 300 304 320 323 326 328 322 328 331 322 318 320 311 306 307 274 262
239 241 246 243 242 241 245 242 243 248 249 253 253 258 260 256 263 267 264 263 263 260 261 264 273 280 284 289 295 304 310 313 321 320 315 314 322 318 314 306 306 276 256
236 237 249 252 256 256 251 246 250 258 257 254 256 258 264 267 264 269 272 272 263 263 264 267 268 270 275 280 288 291 294 296 295 302 307 302 310 310 313 320 308 273 260
325 265 257 259 265 263 265 265 262 262 266 264 261 262 265 265 265 265 271 274 275 270 267 266 267 272 275 283 284 286 287 290 291 291 291 284 297 293 300 313 291 265 278
343 319 302 298 285 272 267 269 269 267 265 267 266 263 262 261 265 265 264 269 276 274 272 268 270 273 276 274 277 281 281 275 279 283 283 272 285 282 291 305 311 279 280
339 329 314 309 308 309 294 281 272 272 275 274 274 272 272 268 269 268 266 269 270 270 274 273 270 268 269 272 272 272 274 263 262 285 287 249 281 288 294 290 293 302 286